Weather History for KFDY - August, 2012

Change the Weather History Date:

Monday, August 20, 2012

  Actual Average Record
Temperature  
Mean Temperature 64 °F -  
Max Temperature 78 °F 79 °F 98 °F (1962)
Min Temperature 50 °F 60 °F 49 °F (1949)
Degree Days  
Heating Degree Days 2    
Growing Degree Days 14 (Base 50)    
Moisture  
Dew Point 54 °F    
Average Humidity 73    
Maximum Humidity 100    
Minimum Humidity 42    
Precipitation  
Precipitation 0.00 in - - ()
Sea Level Pressure  
Sea Level Pressure 29.93 in    
Wind  
Wind Speed 4 mph (NW)    
Max Wind Speed 16 mph    
Max Gust Speed -    
Visibility 9 miles    
Events Thunderstorm    
Averages and records for this station are not official NWS values.
T = Trace of Precipitation, MM = Missing Value Source: NWS Daily Summary

Daily Weather History Graph

Daily Weather History Graph

Search for Another Location

Airport or City:

Trip Planner

Search our weather history database for the weather conditions in past years. The results will help you decide how hot, cold, wet, or windy it might be!

Date:

Astronomy

Aug. 20, 2012 Rise Set
Actual Time 6:49 AM EDT 8:25 PM EDT
Civil Twilight 6:20 AM EDT 8:54 PM EDT
Nautical Twilight 5:45 AM EDT 9:29 PM EDT
Astronomical Twilight 5:08 AM EDT 10:06 PM EDT
Moon 10:13 AM EDT (8/20) 9:45 PM EDT (8/20)
Length of Visible Light 14h 33m
Length of Day
13h 35m
Waxing Crescent, 11% of the Moon is Illuminated
Aug 20
Waxing Crescent
Aug 24
First Quarter
Aug 31
Full
Sep 8
Last Quarter
Sep 15
New

Hourly Weather History & Observations

Time (EDT) Temp. Dew Point Humidity Pressure Visibility Wind Dir Wind Speed Gust Speed Precip Events Conditions
12:53 AM 55.9 °F 53.1 °F 90% 29.90 in 10.0 mi West 4.6 mph - N/A   Clear
1:53 AM 57.0 °F 52.0 °F 83% 29.91 in 10.0 mi Calm Calm - N/A   Clear
2:53 AM 55.0 °F 53.1 °F 93% 29.90 in 10.0 mi SE 5.8 mph - N/A   Mostly Cloudy
3:53 AM 54.0 °F 52.0 °F 93% 29.89 in 9.0 mi Calm Calm - N/A   Clear
4:53 AM 53.1 °F 52.0 °F 96% 29.89 in 9.0 mi Calm Calm - N/A   Clear
5:53 AM 51.1 °F 51.1 °F 100% 29.90 in 5.0 mi Calm Calm - N/A   Clear
6:53 AM 51.1 °F 51.1 °F 100% 29.92 in 4.0 mi Calm Calm - N/A   Clear
7:21 AM 50.0 °F 50.0 °F 100% 29.94 in 2.5 mi WSW 3.5 mph - N/A   Clear
7:42 AM 53.6 °F 51.8 °F 94% 29.94 in 3.0 mi Variable 5.8 mph - N/A   Partly Cloudy
7:53 AM 53.1 °F 52.0 °F 96% 29.93 in 4.0 mi Calm Calm - N/A   Partly Cloudy
8:53 AM 57.9 °F 54.0 °F 87% 29.94 in 10.0 mi WNW 4.6 mph - N/A   Clear
9:53 AM 64.9 °F 55.9 °F 73% 29.95 in 10.0 mi NNW 4.6 mph - N/A   Clear
10:53 AM 69.1 °F 57.9 °F 68% 29.96 in 10.0 mi North 6.9 mph - N/A   Clear
11:53 AM 72.0 °F 57.0 °F 59% 29.95 in 10.0 mi North 3.5 mph - N/A   Clear
12:53 PM 73.9 °F 54.0 °F 50% 29.94 in 10.0 mi NNW 5.8 mph - N/A   Partly Cloudy
1:53 PM 75.0 °F 52.0 °F 44% 29.93 in 10.0 mi Calm Calm - N/A   Clear
2:53 PM 75.9 °F 52.0 °F 43% 29.92 in 10.0 mi West 10.4 mph - N/A   Partly Cloudy
3:53 PM 77.0 °F 54.0 °F 45% 29.91 in 10.0 mi WNW 8.1 mph - N/A   Mostly Cloudy
4:53 PM 75.9 °F 51.1 °F 42% 29.91 in 10.0 mi Variable 6.9 mph - N/A   Partly Cloudy
5:53 PM 75.9 °F 52.0 °F 43% 29.91 in 10.0 mi West 5.8 mph - N/A   Partly Cloudy
6:53 PM 73.9 °F 53.1 °F 48% 29.91 in 10.0 mi SW 6.9 mph - N/A   Mostly Cloudy
7:43 PM 71.6 °F 57.2 °F 60% 29.95 in 10.0 mi North 16.1 mph - N/A Thunderstorm Clear
7:53 PM 70.0 °F 55.9 °F 61% 29.94 in 10.0 mi NE 9.2 mph - N/A   Clear
8:53 PM 66.9 °F 55.0 °F 66% 29.95 in 10.0 mi NNE 5.8 mph - N/A   Clear
9:53 PM 66.0 °F 55.9 °F 70% 29.96 in 10.0 mi East 4.6 mph - N/A   Mostly Cloudy
10:53 PM 62.1 °F 55.9 °F 80% 29.97 in 10.0 mi Calm Calm - N/A   Mostly Cloudy
11:53 PM 61.0 °F 55.0 °F 81% 29.98 in 10.0 mi SSE 3.5 mph - N/A   Mostly Cloudy